Regional Weather Roundup
Issued by NWS

Home | Current Version | Previous Version | Text Only | Print | Product List | Glossary Off
Versions: 1 2 3 4 5 6 7 8 9 10 11 12 13 14 15 16 17 18 19 20 21 22 23 24 25 26 27 28 29 30 31 32 33 34 35 36 37 38 39 40 41 42 43 44 45 46 47 48 49 50

000
ASUS43 KLOT 252203
RWRIL

ILLINOIS REGIONAL WEATHER ROUNDUP
NATIONAL WEATHER SERVICE CHICAGO/ROMEOVILLE IL
500 PM CDT MON JUL 25 2016

NOTE: "FAIR" INDICATES FEW OR NO CLOUDS BELOW 12,000 FEET WITH NO
SIGNIFICANT WEATHER AND/OR OBSTRUCTIONS TO VISIBILITY.

* THESE STATIONS ARE NOT UNDER NWS QUALITY CONTROL. THEY ALSO MAY NOT
  REPORT WEATHER SUCH AS PRECIPITATION OR FOG.

ILZ001-002-007-009-015-016-024-252300-
NORTHWEST ILLINOIS

CITY           SKY/WX    TMP DP  RH WIND       PRES   REMARKS
MOLINE         MOSUNNY   86  64  47 N8        30.00S HX  87
SAVANNA*       MOSUNNY   85  64  49 W7G21     30.00S HX  86
$$

ILZ003-004-008-010-011-017-018-252300-
NORTH CENTRAL ILLINOIS

CITY           SKY/WX    TMP DP  RH WIND       PRES   REMARKS
ROCKFORD       MOSUNNY   87  64  46 NW6       30.01S HX  88
FREEPORT*      PTSUNNY   83  64  52 N8        30.02F HX  85
ROCHELLE*      CLOUDY    82  66  59 NW7       30.01S HX  84
DE KALB*       MOSUNNY   83  68  59 N5        30.01S HX  86
$$

ILZ005-006-012>014-019>023-252300-
NORTHEAST ILLINOIS

CITY           SKY/WX    TMP DP  RH WIND       PRES   REMARKS
CHICAGO-OHARE  PTSUNNY   87  64  46 E8        29.97S HX  88
CHICAGO-MIDWAY PTSUNNY   85  64  49 E10       29.98R HX  86
AURORA         MOSUNNY   84  68  58 W6        30.00S HX  87
LANSING*       CLOUDY    82  62  50 NE8       29.99R HX  83
WAUKEGAN       SUNNY     81  64  56 SE8       29.98S HX  82
DUPAGE AIRPORT MOSUNNY   85  63  47 NW9       29.99S HX  86
KANKAKEE*      CLOUDY    84  70  64 W6        30.00S HX  88
WHEELING       MOSUNNY   85  63  47 E7        29.98F HX  86
MORRIS*        PTSUNNY   83  69  61 CALM      29.98S HX  87
NORTHERLY ISL    N/A     78  68  71 E2          N/A  HX  80
$$

LMZ740>746-252300-
SOUTHERN LAKE MICHIGAN

STATION/POSITION SKY/WX   TEMP    WIND        PRES    VSBY  WAVE
                          AIR SEA DIR/SP/G                  HT/PER
                          (F)     (DEG/KT/KT) (MB)    (MI)  (FT/S)
SOUTHERN BUOY              76 76  190/  6/  6 1015.0          1
WILMETTE HARBOR            74 71  170/  4/  6   N/A           1
HARRISON CRIB              78     110/  7/  7   N/A
BURNHAM HARBOR             78     100/  3/  5   N/A
CALUMET HARBOR             76      70/  7/  9 1015.0F
BURNS HARBOR               78      60/  7/  9 1015.9F
MICHIGAN CITY              75      20/  5/  5   N/A
MICHIGAN CITY 6N           75 77  100/  4/  4   N/A           1/ 3
ST. JOSEPH                 75 77  320/  4/  6 1015.6F         1/ 4
$$

ILZ025>027-034>036-040-047-049-050-058-095>099-252300-
WEST-CENTRAL ILLINOIS

CITY           SKY/WX    TMP DP  RH WIND       PRES   REMARKS
QUINCY         CLOUDY    82  68  62 N7        30.01S HX  85
GALESBURG*     PTSUNNY   82  67  60 NW6       30.01F HX  85
MACOMB*        CLOUDY    82  70  68 N7        30.03S HX  85
JACKSONVILLE*  CLOUDY    82  73  75 N8        29.99S HX  88
PITTSFIELD*    CLOUDY    83  73  72 N6        30.01S HX  88
$$

ILZ028>032-037-038-041>044-048-051>054-059>061-252300-
CENTRAL ILLINOIS

CITY           SKY/WX    TMP DP  RH WIND       PRES   REMARKS
PONTIAC        CLOUDY    83  72  68 CALM      30.01S HX  88
BLOOMINGTON    CLOUDY    83  71  67 NE7       30.02S HX  87
DECATUR        PTSUNNY   84  73  69 N6        30.00S HX  90
PEORIA         CLOUDY    84  70  62 CALM      30.00S HX  88
LACON*         CLOUDY    82  67  59 N6        29.99S HX  85
LINCOLN*       CLOUDY    85  75  72 NE5       30.00R HX  93
SPRINGFIELD    CLOUDY    85  74  69 N7        29.99F HX  92
TAYLORVILLE    CLOUDY    82  74  79 MISG      29.99F HX  87
$$

ILZ033-039-045-046-055>057-062-063-252300-
EAST-CENTRAL ILLINOIS

CITY           SKY/WX    TMP DP  RH WIND       PRES   REMARKS
CHAMPAIGN      CLOUDY    83  74  74 CALM      30.00F HX  89
MATTOON        CLOUDY    83  73  72 N3        29.98S HX  89
PARIS*         CLOUDY    85  75  71 NW3       30.00S HX  93
$$

ILZ079-100>102-252300-
SOUTHWEST ILLINOIS

CITY           SKY/WX    TMP DP  RH WIND       PRES   REMARKS
ALTON          PTSUNNY   82  75  78 NE5       29.98S HX  89
BELLEVILLE     MOSUNNY   87  78  75 NE5       29.95F HX  99
CAHOKIA*       MOSUNNY   88  74  63 NE8       29.95F HX  96
SPARTA*        CLOUDY    84  76  77 N8        29.97F HX  92
$$

ILZ064>066-069>071-074>076-080>082-084>086-088>090-092>094-252300-
SOUTH-CENTRAL ILLINOIS

CITY           SKY/WX    TMP DP  RH WIND       PRES   REMARKS
CARBONDALE     CLOUDY    85  73  67 N5        29.96S HX  91
CAIRO*         CLOUDY    79  75  86 S5        29.97R HX  83
EFFINGHAM*     CLOUDY    83  77  82 NW7       29.99F HX  92
MARION         PTSUNNY   81  77  89 SE6       29.99R HX  88
MT. VERNON     CLOUDY    79  72  78 CALM      29.96F HX  82
CENTRALIA*     CLOUDY    81  78  92 SE5       29.97F HX  90
SALEM*         CLOUDY    83  77  81 CALM      29.97F HX  93
METROPOLIS*    MOSUNNY   84  76  79 W5        29.98R HX  93
$$

ILZ067-068-072-073-078-083-087-091-252300-
SOUTHEAST ILLINOIS

CITY           SKY/WX    TMP DP  RH WIND       PRES   REMARKS
LAWRENCEVILLE  CLOUDY    88  75  65 NE7       29.96F HX  97
FLORA*         LGT RAIN  83  80  89 CALM      29.96F HX  96
FAIRFIELD*     CLOUDY    77  75  93 CALM      29.96S
HARRISBURG*    TSTM      72  72  99 NE3       30.00R
ROBINSON*      CLOUDY    84  76  76 CALM      29.97F HX  93
CARMI*         MOSUNNY   79  75  89 CALM      29.96F HX  82
$$

ABBREVIATIONS USED IN REMARKS
   TC - TEMPERATURE IN CELSIUS
  WCI - WIND CHILL INDEX
   HX - HEAT INDEX
  VSB - VISIBILITY
$$




USA.gov is the U.S. government's official web portal to all federal, state and local government web resources and services.